UAL1 KSFO-WSSS

Flight info

Callsign UAL1
Flight time N/A
Altitude 32000
Route GNNRR3 AMAKR DCT REDWD DCT UNVER DCT 42N130W 46N140W/N0490F340 50N150W 51N160W 50N170W 46N180E/N0495F360 38N170E 33N160E 28N150E/N0488F380 23N140E 19N130E DCT OMDOB/N0484F400 DCT JOM M767 TOMAN KARTO2B
Aircraft B789/H-SDE1E2E3FGHIJ2J3J4J5M1RWXY/LB1D1

Departure

Time N/A
Airport San Francisco International Airport (KSFO)

Arrival

Time 2026-05-04 20:12
Airport Singapore Changi Airport (WSSS)
Time Latitude Longitude Altitude Speed Heading
2026-05-04 19:50 1.18348 105.30611 26456 ft 412 kts 268°
2026-05-04 19:50 1.18276 105.27757 25976 ft 410 kts 268°
2026-05-04 19:51 1.18202 105.24909 25480 ft 408 kts 268°
2026-05-04 19:51 1.18129 105.22090 25019 ft 405 kts 268°
2026-05-04 19:51 1.18058 105.19278 24555 ft 403 kts 268°
2026-05-04 19:51 1.17988 105.16514 24104 ft 400 kts 268°
2026-05-04 19:52 1.17916 105.13729 23651 ft 398 kts 268°
2026-05-04 19:52 1.17845 105.10970 23158 ft 395 kts 268°
2026-05-04 19:52 1.17779 105.08233 22646 ft 392 kts 269°
2026-05-04 19:52 1.17726 105.05553 22154 ft 389 kts 269°
2026-05-04 19:53 1.17673 105.02851 21657 ft 386 kts 269°
2026-05-04 19:53 1.17615 105.00176 21156 ft 383 kts 269°
2026-05-04 19:53 1.17556 104.97522 20669 ft 380 kts 269°
2026-05-04 19:53 1.17501 104.94893 20183 ft 377 kts 269°
2026-05-04 19:54 1.17446 104.92281 19715 ft 374 kts 269°
2026-05-04 19:54 1.17391 104.89691 19229 ft 372 kts 269°
2026-05-04 19:54 1.17336 104.87142 18774 ft 369 kts 269°
2026-05-04 19:54 1.17281 104.84587 18314 ft 366 kts 269°
2026-05-04 19:55 1.17228 104.82054 17808 ft 364 kts 269°
2026-05-04 19:55 1.17174 104.79538 17308 ft 360 kts 269°
2026-05-04 19:55 1.17117 104.77054 16810 ft 356 kts 269°
2026-05-04 19:55 1.17059 104.74586 16319 ft 353 kts 269°
2026-05-04 19:56 1.17002 104.72142 15831 ft 350 kts 269°
2026-05-04 19:56 1.16948 104.69716 15348 ft 346 kts 269°
2026-05-04 19:56 1.16893 104.67320 14870 ft 343 kts 269°
2026-05-04 19:56 1.16838 104.64946 14399 ft 340 kts 269°
2026-05-04 19:57 1.16784 104.62588 13930 ft 337 kts 269°
2026-05-04 19:57 1.16731 104.60289 13447 ft 334 kts 269°
2026-05-04 19:57 1.16678 104.57973 12932 ft 330 kts 269°
2026-05-04 19:57 1.16626 104.55695 12456 ft 326 kts 268°
2026-05-04 19:58 1.16574 104.53450 12163 ft 321 kts 268°
2026-05-04 19:58 1.16523 104.51222 11865 ft 321 kts 268°
2026-05-04 19:58 1.16472 104.48997 11555 ft 319 kts 268°
2026-05-04 19:58 1.16437 104.46789 11238 ft 317 kts 272°
2026-05-04 19:59 1.16957 104.44676 10947 ft 315 kts 296°
2026-05-04 19:59 1.18100 104.42817 10654 ft 314 kts 303°
2026-05-04 19:59 1.19325 104.41037 10346 ft 305 kts 304°
2026-05-04 19:59 1.20521 104.39326 10059 ft 296 kts 304°
2026-05-04 20:00 1.21649 104.37668 9773 ft 288 kts 303°
2026-05-04 20:00 1.22754 104.36027 9486 ft 282 kts 303°
2026-05-04 20:00 1.23851 104.34410 9213 ft 280 kts 303°
2026-05-04 20:00 1.24946 104.32802 8949 ft 279 kts 303°
2026-05-04 20:01 1.26039 104.31196 8696 ft 278 kts 303°
2026-05-04 20:01 1.27128 104.29592 8422 ft 278 kts 303°
2026-05-04 20:01 1.28215 104.27994 8158 ft 277 kts 304°
2026-05-04 20:01 1.29285 104.26420 7882 ft 276 kts 304°
2026-05-04 20:02 1.30360 104.24838 7629 ft 274 kts 304°
2026-05-04 20:02 1.31403 104.23303 7359 ft 256 kts 304°
2026-05-04 20:02 1.32396 104.21952 7169 ft 228 kts 313°
2026-05-04 20:02 1.33713 104.21163 6946 ft 218 kts 342°
2026-05-04 20:03 1.35192 104.20818 6777 ft 218 kts 347°
2026-05-04 20:03 1.36668 104.20510 6578 ft 215 kts 347°
2026-05-04 20:03 1.38131 104.20203 6379 ft 214 kts 347°
2026-05-04 20:03 1.39589 104.19890 6159 ft 213 kts 347°
2026-05-04 20:04 1.41017 104.19582 5945 ft 212 kts 347°
2026-05-04 20:04 1.42460 104.19272 5729 ft 211 kts 347°
2026-05-04 20:04 1.43903 104.18964 5526 ft 210 kts 347°
2026-05-04 20:04 1.45329 104.18658 5330 ft 209 kts 347°
2026-05-04 20:05 1.46734 104.18357 5132 ft 208 kts 347°
2026-05-04 20:05 1.48151 104.18052 4935 ft 208 kts 347°
2026-05-04 20:05 1.49564 104.17749 4729 ft 207 kts 347°
2026-05-04 20:05 1.50962 104.17416 4518 ft 206 kts 341°
2026-05-04 20:06 1.52042 104.16519 4275 ft 204 kts 303°
2026-05-04 20:06 1.52424 104.15187 4094 ft 204 kts 274°
2026-05-04 20:06 1.52504 104.13766 3940 ft 205 kts 273°
2026-05-04 20:06 1.52583 104.12367 3751 ft 197 kts 274°
2026-05-04 20:07 1.52669 104.11006 3562 ft 195 kts 274°
2026-05-04 20:07 1.52756 104.09661 3379 ft 193 kts 274°
2026-05-04 20:07 1.52842 104.08317 3192 ft 193 kts 274°
2026-05-04 20:07 1.52925 104.06999 3013 ft 192 kts 274°
2026-05-04 20:08 1.52718 104.05699 2756 ft 192 kts 240°
2026-05-04 20:08 1.51738 104.04817 2601 ft 192 kts 207°
2026-05-04 20:08 1.50505 104.04304 2458 ft 192 kts 202°
2026-05-04 20:08 1.49294 104.03815 2274 ft 187 kts 202°
2026-05-04 20:09 1.48086 104.03311 2091 ft 189 kts 202°
2026-05-04 20:09 1.46873 104.02798 1971 ft 187 kts 202°
2026-05-04 20:09 1.45751 104.02325 1957 ft 161 kts 202°
2026-05-04 20:09 1.44755 104.01906 1898 ft 153 kts 200°
2026-05-04 20:10 1.43803 104.01510 1507 ft 144 kts 201°
2026-05-04 20:10 1.42887 104.01130 1162 ft 153 kts 201°
2026-05-04 20:10 1.41918 104.00727 910 ft 151 kts 201°
2026-05-04 20:10 1.40946 104.00318 727 ft 150 kts 203°
2026-05-04 20:11 1.39988 103.99908 533 ft 151 kts 204°
2026-05-04 20:11 1.39028 103.99503 332 ft 147 kts 204°
2026-05-04 20:11 1.38087 103.99099 159 ft 148 kts 205°
2026-05-04 20:11 1.37167 103.98704 41 ft 134 kts 204°
2026-05-04 20:12 1.36487 103.98418 36 ft 76 kts 202°
2026-05-04 20:12 1.36113 103.98279 36 ft 35 kts 186°
2026-05-04 20:12 1.35952 103.98293 36 ft 16 kts 151°
2026-05-04 20:12 1.35944 103.98374 36 ft 12 kts 47°
2026-05-04 20:13 1.36023 103.98415 36 ft 13 kts 24°
2026-05-04 20:13 1.36113 103.98453 36 ft 15 kts 22°
2026-05-04 20:13 1.36214 103.98495 36 ft 16 kts 22°
2026-05-04 20:13 1.36319 103.98539 36 ft 18 kts 23°
2026-05-04 20:14 1.36436 103.98589 36 ft 19 kts 23°
2026-05-04 20:14 1.36561 103.98642 36 ft 20 kts 22°
2026-05-04 20:14 1.36693 103.98697 36 ft 21 kts 23°
2026-05-04 20:14 1.36807 103.98746 36 ft 11 kts 25°
2026-05-04 20:15 1.36832 103.98810 36 ft 12 kts 103°
2026-05-04 20:15 1.36797 103.98896 36 ft 14 kts 112°
2026-05-04 20:15 1.36755 103.98994 36 ft 16 kts 113°
2026-05-04 20:15 1.36709 103.99102 36 ft 18 kts 113°
2026-05-04 20:16 1.36659 103.99218 36 ft 19 kts 113°
2026-05-04 20:16 1.36605 103.99346 36 ft 21 kts 113°
2026-05-04 20:16 1.36547 103.99481 36 ft 22 kts 113°
2026-05-04 20:16 1.36502 103.99580 36 ft 13 kts 122°
2026-05-04 20:17 1.36425 103.99597 36 ft 12 kts 196°
2026-05-04 20:17 1.36359 103.99543 36 ft 13 kts 232°
2026-05-04 20:17 1.36300 103.99466 36 ft 15 kts 232°
2026-05-04 20:17 1.36216 103.99406 36 ft 16 kts 202°
2026-05-04 20:18 1.36112 103.99363 36 ft 17 kts 203°
2026-05-04 20:18 1.35997 103.99315 36 ft 18 kts 203°